Orbital Elements at Epoch 2459200.5 (2020-Dec-17.0) TDB
Reference: JPL 23 (heliocentric ecliptic J2000)
Element | Value | Uncertainty (1-sigma) | Units |
e | .08058477448514065 | 7.2702e-08 | |
a | 3.459644630053111 | 3.1416e-08 | au |
q | 3.180849947741553 | 2.423e-07 | au |
i | 9.537122658147362 | 5.7233e-06 | deg |
node | 354.421483258638 | 3.1193e-05 | deg |
peri | 27.93561270137913 | 4.5087e-05 | deg |
M | 82.16046271504955 | 3.0731e-05 | deg |
tp | 2458664.078669500456 (2019-Jun-29.57866950) | 0.00020041 | TDB |
period | 2350.421024886255 6.44 | 3.2016e-05 8.766e-08 | d yr |
n | .1531640485633512 | 2.0863e-09 | deg/d |
Q | 3.738439312364669 | 3.3948e-08 | au |
|
| | Orbit Determination Parameters
Additional Information
|